Location: ??????? ????
(54.4778°N, 22.4408°E)
Time: 09:58:21
(UTC+00:00)

Daily predictions for brighter satellites

Satellite Brightness Start Highest point End
(mag) Time Altitude Azimuth Time Altitude Azimuth Time Altitude Azimuth
NOSS 2-3 (C) 3.9 17:02:28 10° SW 17:06:54 88° NW 17:12:26 10° NE
Cosmos 2233 Rocket 4.0 17:01:05 10° S 17:07:13 66° E 17:13:22 10° NNE
Cosmos 1725 Rocket 4.2 17:05:37 10° SSW 17:11:56 83° WNW 17:18:13 10° N
CREW DRAGON DEMO-1 DEB 3.4 17:09:59 10° WSW 17:12:54 44° S 17:15:49 10° E
Cosmos 1025 Rocket 3.8 17:09:08 10° N 17:13:07 33° ENE 17:17:05 10° SE
Cosmos 1782 Rocket 3.8 17:09:09 10° SSE 17:13:24 47° E 17:17:41 10° NNE
NOSS 3-1 (A) 3.6 17:08:20 10° SW 17:14:04 85° NW 17:20:55 10° NE
Cosmos 1908 Rocket 3.5 17:11:12 10° S 17:15:34 81° E 17:19:59 10° NNE
Cosmos 1975 2.9 17:11:48 10° S 17:15:49 59° E 17:19:52 10° NNE
CZ-4 R/B 2.4 17:12:23 10° S 17:16:31 54° W 17:20:40 10° NNW
Cosmos 2082 Rocket 4.1 17:13:32 10° NNW 17:17:15 18° NNE 17:20:58 10° ENE
USA 102 3.8 17:11:09 10° SSE 17:17:50 72° SW 17:19:54 10° NW
USA 186 2.4 17:18:49 10° SE 17:21:43 36° ENE 17:24:45 10° N
Cosmos 1937 Rocket 3.8 17:17:18 10° S 17:22:17 45° ESE 17:27:14 10° NE
MOS 1 Rocket 3.5 17:18:43 10° NNE 17:23:03 41° E 17:27:10 10° SSE
Cosmos 2297 Rocket 3.8 17:22:21 10° WSW 17:27:35 36° NW 17:32:50 10° NNE
Cosmos 1544 3.4 17:24:25 10° SSW 17:28:05 74° WNW 17:31:45 10° N
Cosmos 1842 3.8 17:25:54 10° NNW 17:29:44 61° W 17:33:33 10° S
NOSS 2-2 (E) 4.3 17:27:26 10° S 17:30:18 23° ESE 17:33:28 10° ENE
OBJECT-B 2.2 17:28:11 11° ESE 17:30:36 21° ENE 17:33:10 10° NNE
Cosmos 1674 3.9 17:28:47 10° N 17:31:58 24° ENE 17:34:53 11° ESE
In-Cosmos 22 4.2 17:27:00 10° N 17:32:12 54° ENE 17:37:25 10° SSE
Cosmos 1975 Rocket 3.2 17:28:28 10° NNW 17:32:51 81° W 17:37:10 10° S
COSMO-SKYMED 1 3.9 17:31:13 10° N 17:35:23 46° WNW 17:39:32 10° SW
FREGAT/IRIS 3.0 17:34:35 11° SE 17:36:50 32° ENE 17:39:13 10° N
NOSS 2-2 (D) 4.4 17:35:58 10° S 17:38:45 22° ESE 17:41:47 10° ENE
CZ-2C R/B 3.3 17:36:10 10° NNE 17:41:13 35° E 17:46:18 10° SSE
H-2A R/B 2.3 17:37:09 10° S 17:42:06 69° WSW 17:47:13 10° NNW
ARGOS 3.2 17:37:03 10° SSE 17:42:25 86° WSW 17:47:51 10° NNW
DMSP B5D1-3 4.5 17:37:48 10° NNE 17:42:56 85° ESE 17:48:02 10° SSW
CENTAUR R/B 3.2 17:35:56 10° NW 17:43:33 70° NNE 17:51:22 13° ESE
Cosmos 1707 2.6 17:40:32 10° N 17:44:24 79° ENE 17:48:14 10° SSE
ATLAS 5 CENTAUR R/B 3.9 17:42:02 10° W 17:44:33 24° SW 17:49:49 10° SSE
Resurs 01 Rocket 2.8 17:41:42 13° ESE 17:44:47 27° ENE 17:48:32 10° N
Lacrosse 4 Rocket 3.5 17:43:49 10° NNW 17:46:20 16° NNE 17:48:49 10° NE
MOS 1 4.3 17:42:28 10° SSE 17:48:06 67° ENE 17:53:47 10° NNW
Cosmos 1048 Rocket 4.1 17:43:31 10° NNW 17:48:47 63° ENE 17:53:54 11° SE
ATLAS 3B R/B 3.4 17:43:08 10° NW 17:49:35 45° NNE 17:55:34 13° E
Iridium 4 Rocket 4.2 17:44:56 10° SSW 17:49:53 61° W 17:55:20 10° N
SJ-6B 2.7 17:46:45 10° SSE 17:50:25 60° ENE 17:54:10 10° N
Sich 1 Rocket 3.6 17:46:48 10° S 17:51:15 68° E 17:55:48 10° NNE
USA 238 DEB 3.9 17:44:13 10° NW 17:51:23 87° NE 17:58:11 13° SE
USA 238 3.9 17:44:19 10° NW 17:51:29 87° NE 17:58:16 13° SE
NOSS 3-1 (C) 4.3 17:49:56 10° W 17:55:42 51° NNW 18:02:36 10° NE
ATLAS CENTAUR R/B 3.0 17:52:26 10° W 17:55:51 29° NNW 17:59:09 10° NE
Cosmos 2263 Rocket 2.1 17:52:48 10° SSW 17:58:23 85° ESE 18:04:01 10° NE
Cosmos 1513 Rocket 4.5 17:53:39 10° S 17:59:51 67° E 18:05:58 10° NNE
ARIANE 5 R/B 3.9 18:00:09 18° E 18:02:07 24° ENE 18:05:37 10° N
SL-08 RB Rocket 3.9 17:57:32 10° S 18:02:08 78° WSW 18:06:43 10° NNW
Cosmos 1844 Rocket 3.4 18:01:16 10° SSE 18:05:57 29° ESE 18:10:39 10° NE
SJ 16-02 2.9 18:02:54 10° SW 18:07:01 38° NW 18:11:09 10° NNE
Cosmos 990 Rocket 4.4 18:02:11 10° SW 18:07:18 65° WNW 18:12:27 10° NNE
Cosmos 1464 Rocket 3.9 18:01:49 10° S 18:07:54 72° E 18:14:05 10° NNE
Cosmos 2227 4.3 18:02:15 10° SW 18:08:00 81° WNW 18:13:46 10° NNE
ISS -1.8 18:06:46 10° S 18:08:14 15° SSE 18:08:14 15° SSE
Cosmos 1092 Rocket 4.1 18:04:24 10° N 18:10:27 54° ENE 18:15:35 15° SSE
Abrixas rocket 3.3 18:08:34 10° SW 18:10:54 23° S 18:11:14 22° SSE
Okean 2 Rocket 3.0 18:07:02 10° S 18:11:29 70° E 18:15:59 10° NNE
NOSS 8 (F) 4.3 18:10:47 10° WSW 18:13:50 70° NW 18:16:57 10° NE
Lacrosse 5 rocket 1.7 18:11:39 10° W 18:15:59 73° NNW 18:19:36 16° ENE
Okean 1 Rocket 3.9 18:14:13 22° SE 18:16:10 31° E 18:20:08 10° NNE
Ariane Rocket 3.3 18:11:44 10° S 18:16:48 71° WSW 18:21:54 10° NNW
Meteor 1-12 Rocket 4.2 18:11:25 10° S 18:17:19 77° E 18:23:08 10° NNE
Cosmos 2026 Rocket 4.3 18:11:51 10° N 18:18:01 49° ENE 18:22:22 19° SE
NOSS 3-2 (A) 4.2 18:12:24 10° NW 18:19:39 73° SW 18:26:32 16° SSE
Meteor 2-13 Rocket 4.5 18:13:39 10° N 18:19:49 64° ENE 18:24:57 15° SSE
Cosmos 494 Rocket 4.0 18:16:47 10° NNW 18:22:04 75° ENE 18:25:34 22° SE
NOSS 2-2 (C) 3.3 18:19:34 10° SSW 18:23:00 48° SE 18:26:59 10° NE
Cosmos 1833 Rocket 3.6 18:17:56 10° NNW 18:23:08 36° NE 18:26:05 22° E
Resurs 1-3 3.5 18:20:34 18° SSE 18:23:46 74° ENE 18:28:11 10° NNW
Cosmos 1300 Rocket 3.5 18:20:24 10° S 18:24:48 88° E 18:29:17 10° NNE
Cosmos 2227 Rocket 4.4 18:20:40 10° W 18:25:11 24° NNW 18:29:44 10° NNE
Cosmos 2298 Rocket 4.1 18:20:35 10° S 18:25:44 52° ESE 18:30:56 10° NE
CZ-2C R/B 4.3 18:21:47 10° NNE 18:25:51 34° E 18:27:16 27° SE
SPOT 3 Rocket 3.5 18:22:58 17° SSE 18:26:57 75° ENE 18:32:07 10° NNW
MetOp-A 4.3 18:23:17 10° S 18:28:38 73° WSW 18:34:01 10° NNW
Cosmos 1536 Rocket 4.0 18:32:29 10° NNW 18:36:53 61° W 18:41:16 10° S
USA 234 3.7 18:32:57 10° ENE 18:38:59 38° SE 18:44:59 10° SSW
Terra 3.4 18:40:19 19° ENE 18:41:13 20° NE 18:44:38 10° N
Cosmos 1892 Rocket 4.1 18:38:05 10° N 18:42:12 39° ENE 18:42:56 36° E
NOSS 5 (C) 4.1 18:39:42 10° NW 18:42:43 88° NNE 18:43:14 61° SE
Cosmos 1626 2.3 18:39:11 10° N 18:42:50 51° ENE 18:43:18 48° ESE
DMSP B5D2-2 4.0 18:39:02 10° NNE 18:44:22 85° ESE 18:49:40 10° SSW
Meteor 2-5 Rocket 3.6 18:38:57 10° NNW 18:44:36 79° ENE 18:48:05 25° SSE
CREW DRAGON DEMO-1 DEB 3.6 18:45:25 10° W 18:47:59 40° SSW 18:47:59 40° SSW
USA 186 4.4 18:50:12 10° SW 18:52:33 20° W 18:55:01 10° NW
Cosmos 2151 Rocket 3.9 18:48:18 10° SSW 18:52:44 69° WNW 18:57:15 10° N
Cosmos 372 Rocket 4.1 18:48:14 10° SSW 18:53:29 77° WNW 18:58:45 10° NNE
NOSS 3-2 (C) 4.1 18:46:29 10° NW 18:53:44 70° SW 18:58:44 26° SSE
Cosmos 2150 Rocket 4.0 18:50:29 10° SSW 18:55:52 79° ESE 19:01:21 10° NNE
Cosmos 1805 3.1 19:00:42 52° S 19:01:35 79° E 19:05:32 10° NNE
SPOT 5 3.8 19:00:55 34° E 19:01:56 37° ENE 19:06:46 10° N
OBJECT-B 2.3 19:01:23 23° SW 19:02:49 34° W 19:05:51 10° NNW
Cosmos 2082 Rocket 2.9 18:57:39 10° NNW 19:02:57 39° NE 19:04:43 31° E
Meteor 1-22 Rocket 4.4 19:00:49 33° SSE 19:03:11 53° E 19:09:03 10° NNE
Cosmos 2034 Rocket 4.3 18:58:36 10° SSW 19:04:57 69° WNW 19:11:18 10° N
Cosmos 1125 Rocket 3.4 19:01:33 10° SSW 19:06:49 68° ESE 19:12:07 10° NNE
Cosmos 1674 3.9 19:04:01 10° NNW 19:07:39 40° W 19:09:42 22° SSW
Exosat Rocket 3.4 19:02:50 10° SSW 19:08:10 63° ESE 19:13:08 10° NE
Okean 1-7 Rocket 3.8 19:04:24 10° N 19:08:54 53° ENE 19:09:15 52° E
COSMOS 2406 3.2 19:04:50 10° NNW 19:10:33 75° NE 19:12:17 46° SE
Meteor 1-24 Rocket 3.6 19:06:17 10° NNW 19:11:46 85° WSW 19:14:11 36° S
SL-14 R/B 3.2 19:11:58 10° NNW 19:15:53 82° W 19:16:10 74° SSW
CRYOSAT 2 4.2 19:11:54 10° N 19:16:50 71° E 19:17:48 55° SSE
Cosmos 1733 3.1 19:17:21 75° NE 19:17:21 75° NE 19:20:57 10° NNE
ERS-1 Rocket 3.2 19:17:24 47° E 19:18:00 50° ENE 19:22:52 10° N
Cosmos 2266 Rocket 4.3 19:14:08 10° N 19:19:58 46° ENE 19:21:01 42° E
NOSS 2-2 (E) 3.8 19:16:45 10° WSW 19:20:22 60° NW 19:24:52 10° NE
Resurs 01 Rocket 2.3 19:19:17 32° SSW 19:21:04 51° W 19:25:27 10° NNW
Cosmos 2098 Rocket 4.3 19:14:10 10° N 19:21:28 59° ENE 19:23:23 44° SE
CZ-2C R/B 3.6 19:16:24 10° N 19:21:42 50° WNW 19:27:03 10° SW
ATLAS 2AS CENTAUR R/B 3.3 19:24:47 40° SE 19:25:22 41° ESE 19:32:34 10° NE
Lacrosse 4 Rocket 2.1 19:22:09 10° NNW 19:25:54 41° NE 19:25:54 41° NE
Cosmos 1655 Rocket 4.0 19:19:50 10° N 19:26:04 63° ENE 19:27:33 49° SE
Landsat 7 3.8 19:25:47 59° S 19:26:41 84° WSW 19:31:30 10° NNW
NOSS 2-2 (D) 3.7 19:25:12 10° WSW 19:28:49 61° NW 19:32:27 14° NE
Cosmos 1766 3.7 19:33:39 56° WSW 19:34:04 60° WNW 19:38:00 10° N
CENTAUR R/B 3.6 19:26:44 10° NW 19:34:22 52° SW 19:38:32 30° S
SPOT 1/Viking Rocket 3.4 19:33:46 61° SSE 19:34:44 88° WSW 19:39:56 10° NNW
ATLAS CENTAUR R/B 3.6 19:33:10 10° NW 19:35:45 17° N 19:37:31 13° NNE
Cosmos 1470 4.5 19:38:04 24° NNE 19:38:04 24° NNE 19:39:50 10° NNE
IGS 5A 3.6 19:37:09 64° WSW 19:37:16 64° WSW 19:41:26 10° NNW
Cosmos 1844 3.6 19:31:42 10° SSW 19:37:26 89° ESE 19:43:06 10° NNE
Cosmos 2278 Rocket 3.9 19:40:44 19° ENE 19:40:44 19° ENE 19:42:36 10° NE
ARIANE 5 R/B 3.0 19:37:43 51° SW 19:38:18 56° WSW 19:42:36 10° NNW
Cosmos 1626 Rocket 4.2 19:33:59 10° N 19:37:37 46° NE 19:37:37 46° NE
Cosmos 1634 Rocket 4.0 19:34:24 23° SSW 19:38:29 80° WNW 19:44:44 10° N
ATLAS 3B R/B 2.6 19:34:05 10° NW 19:40:55 87° SW 19:42:49 53° SE
Cosmos 2263 Rocket 4.1 19:38:09 10° W 19:42:59 29° NW 19:47:52 10° NNE
Cosmos 2285 Rocket 4.0 19:37:19 10° SSW 19:43:39 83° WNW 19:50:04 10° NNE
Cosmos 1455 Rocket 3.8 19:45:54 43° NNE 19:45:54 43° NNE 19:48:58 10° NNE
Cosmos 909 Rocket 4.0 19:41:53 10° NW 19:48:43 80° NE 19:50:00 59° ESE
Spot 2 Rocket 3.7 19:48:08 54° SSW 19:48:58 63° WSW 19:54:00 10° NNW
Cosmos 1844 Rocket 2.9 19:43:54 10° SW 19:49:27 67° NW 19:55:04 10° NNE
Okean 1 Rocket 4.4 19:51:22 20° SW 19:53:59 39° WNW 19:58:14 10° N
Cosmos 1340 Rocket 3.8 19:55:20 44° N 19:55:20 44° N 19:58:11 10° N
Lacrosse 5 rocket 1.9 19:51:06 10° WNW 19:55:13 63° NNW 19:55:13 63° NNW
Cosmos 2180 Rocket 4.4 20:05:56 65° S 20:06:57 87° E 20:13:21 10° NNE
Cosmos 1461 4.1 20:02:38 10° NW 20:07:04 41° NNE 20:07:04 41° NNE
Cosmos 1833 Rocket 2.8 20:01:51 10° NW 20:07:28 64° WSW 20:07:46 63° SW
Cosmos 407 Rocket 4.3 20:05:26 10° NNW 20:09:56 41° NE 20:09:56 41° NE
Cosmos 2251 Rocket 3.5 20:07:37 10° NNW 20:12:49 80° WNW 20:12:49 80° WNW
H-2A R/B 4.4 20:10:07 10° N 20:13:28 48° NNW 20:13:28 48° NNW
Terra 2.2 20:19:13 62° NNW 20:19:13 62° NNW 20:23:14 10° NNW
Cosmos 1140 Rocket 4.3 20:17:22 10° NNW 20:21:42 40° NE 20:21:42 40° NE
USA 234 3.1 20:19:22 33° ENE 20:22:35 81° SSE 20:29:09 10° WSW
Cosmos 2279 Rocket 4.3 20:20:51 42° SW 20:22:53 63° WNW 20:29:09 10° N
Meteor 2-21 Rocket 4.4 20:30:20 10° N 20:36:18 76° NE 20:36:18 76° NE
SPOT 5 3.8 20:40:10 46° W 20:40:10 46° W 20:45:01 10° NNW
Cosmos 2082 Rocket 2.7 20:41:47 10° NW 20:46:33 51° W 20:46:33 51° W
NOSS 3-4 (A) 3.8 20:54:07 57° NE 20:54:07 57° NE 20:59:15 10° NE
NOSS 3-4 (C) 3.8 20:54:17 55° NE 20:54:17 55° NE 20:59:22 10° NE
Aureole 1 Rocket 4.5 20:47:07 10° NNW 20:52:04 41° NNE 20:52:04 41° NNE
ERS-1 Rocket 4.4 20:57:24 31° W 20:57:24 31° W 21:01:30 10° NNW
Lacrosse 4 Rocket 3.8 21:00:57 10° NW 21:02:11 18° WNW 21:02:11 18° WNW
CZ-4C R/B 4.2 21:16:50 19° ENE 21:16:50 19° ENE 21:18:38 10° NE
SME Rocket 4.2 21:08:51 10° NNE 21:14:54 59° NW 21:14:54 59° NW
ATLAS CENTAUR R/B 4.1 21:12:39 10° NW 21:13:40 15° NNW 21:13:40 15° NNW
ATLAS 2AS CENTAUR R/B 3.0 21:11:59 33° WSW 21:16:03 79° NW 21:23:51 10° NE
Cosmos 2278 Rocket 2.9 21:22:33 52° N 21:22:33 52° N 21:27:07 10° NNE
ATLAS 3B R/B 4.0 21:25:18 10° WNW 21:30:03 27° WSW 21:30:03 27° WSW
Lacrosse 5 rocket 4.2 21:30:21 10° WNW 21:30:51 13° WNW 21:30:51 13° WNW
NOSS 3-1 (C) 4.2 21:33:10 10° NW 21:40:01 61° NNE 21:41:28 53° ENE
Cosmos 1553 Rocket 4.3 21:45:43 63° NNE 21:45:43 63° NNE 21:51:03 10° NNE
Terra 4.3 21:58:06 14° WNW 21:58:06 14° WNW 21:59:35 10° NW
Cosmos 2227 Rocket 4.4 21:53:36 10° NNW 21:57:45 20° NNE 22:01:46 10° ENE
Cosmos 1745 Rocket 4.5 21:51:56 10° NNW 21:56:46 55° NW 21:56:46 55° NW
USA 234 3.6 21:59:06 10° ENE 22:06:55 58° WNW 22:12:09 10° W
SL-16 R/B 3.9 22:27:14 28° ENE 22:28:27 30° NE 22:33:42 10° N
Cosmos 1943 Rocket 3.3 22:35:46 40° NNE 22:35:46 40° NNE 22:39:15 10° NNE
COSMOS 2455 3.5 22:35:52 52° N 22:35:52 52° N 22:41:00 10° NE
USA 229 DEB 3.9 22:30:45 10° NW 22:37:21 76° NNW 22:37:21 76° NNW
USA 229 3.9 22:30:51 10° NW 22:37:28 76° NNW 22:37:28 76° NNW
CZ-2D R/B 4.5 22:37:20 10° NE 22:39:26 14° ENE 22:39:26 14° ENE
Cosmos 2297 Rocket 3.7 22:40:36 10° NNW 22:45:40 32° NE 22:47:05 28° ENE
NOSS 3-1 (A) 3.9 22:42:54 10° NW 22:50:00 79° NE 22:50:19 77° ENE
Resurs 1-4 Rocket 4.2 22:51:00 10° NE 22:53:50 18° ENE 22:53:50 18° ENE
Cosmos 2369 Rocket 3.1 22:59:18 45° NNE 22:59:18 45° NNE 23:03:10 10° NNE
Cosmos 2315 Rocket 4.4 22:58:39 61° NNW 22:58:39 61° NNW 23:03:53 10° N
CZ-4C R/B 2.9 23:02:01 55° N 23:02:01 55° N 23:07:46 10° NE
Cosmos 2278 Rocket 4.2 23:04:22 18° WNW 23:06:40 22° NNW 23:11:05 10° NNE
Cosmos 2184 Rocket 4.4 23:00:56 10° NNW 23:05:50 59° NNW 23:05:50 59° NNW
ATLAS 2AS CENTAUR R/B 3.8 23:00:26 10° W 23:08:03 46° NNW 23:15:20 10° ENE
Cosmos 1452 Rocket 4.4 23:43:44 44° N 23:43:44 44° N 23:47:39 10° NNE
Cosmos 2227 Rocket 2.8 23:37:34 10° NNW 23:43:07 52° NE 23:43:30 51° ENE
USA 234 3.2 23:42:00 10° ESE 23:48:33 84° NNE 23:55:08 10° WNW
Timation 2 Rocket 4.3 23:44:23 10° NW 23:49:04 55° NW 23:49:04 55° NW
